| time (UTC) | temp C | wind direction | speed KPH | gust KPH | rain 1hr cm | rain 24hr cm | rain mn cm | humidity % | barometer mb |
| 20260905065435 | 16 | 198 | 14.5 | 29.0 | 0.00 | 1.55 | 0.05 | 84 | 1009.9 |
| 20260905064954 | 16 | 261 | 6.4 | 20.9 | 0.00 | 1.55 | 0.05 | 85 | 1009.8 |
| 20260905063438 | 15 | 248 | 6.4 | 12.9 | 0.00 | 1.55 | 0.05 | 86 | 1009.7 |
| 20260905062938 | 15 | 197 | 8.0 | 19.3 | 0.00 | 1.57 | 0.05 | 86 | 1009.6 |
| 20260905061433 | 15 | 225 | 11.3 | 19.3 | 0.00 | 1.60 | 0.05 | 87 | 1009.6 |
| 20260905060433 | 15 | 261 | 9.7 | 16.1 | 0.00 | 1.63 | 0.05 | 87 | 1009.6 |
| 20260905055430 | 14 | 247 | 6.4 | 16.1 | 0.00 | 1.65 | 0.05 | 88 | 1009.5 |
| 20260905054432 | 14 | 225 | 6.4 | 16.1 | 0.00 | 1.75 | 0.05 | 88 | 1009.4 |
| 20260905053926 | 14 | 266 | 6.4 | 16.1 | 0.00 | 1.85 | 0.05 | 88 | 1009.2 |
| 20260905052433 | 14 | 224 | 4.8 | 14.5 | 0.00 | 1.98 | 0.05 | 88 | 1009.2 |
| 20260905051433 | 14 | 217 | 4.8 | 16.1 | 0.00 | 2.11 | 0.05 | 88 | 1009.2 |
| 20260905050431 | 13 | 200 | 6.4 | 14.5 | 0.00 | 2.16 | 0.05 | 88 | 1009.2 |
| 20260905045433 | 14 | 219 | 4.8 | 12.9 | 0.00 | 2.21 | 0.05 | 88 | 1009.2 |
| 20260905044911 | 14 | 251 | 3.2 | 12.9 | 0.00 | 2.34 | 0.05 | 87 | 1009.1 |
| 20260905043917 | 13 | 217 | 6.4 | 14.5 | 0.00 | 2.44 | 0.05 | 88 | 1009.1 |
| 20260905042431 | 13 | 257 | 4.8 | 12.9 | 0.00 | 2.46 | 0.05 | 89 | 1009.0 |
| 20260905041431 | 13 | 217 | 6.4 | 16.1 | 0.00 | 2.49 | 0.05 | 89 | 1008.9 |
| 20260905040909 | 13 | 241 | 6.4 | 11.3 | 0.00 | 2.49 | 0.05 | 90 | 1008.9 |
| 20260905035433 | 13 | 225 | 3.2 | 12.9 | 0.00 | 2.49 | 0.05 | 89 | 1008.9 |
| 20260905034431 | 13 | 244 | 4.8 | 14.5 | 0.00 | 2.49 | 0.05 | 90 | 1008.9 |
| 20260905033918 | 13 | 259 | 6.4 | 12.9 | 0.00 | 2.54 | 0.05 | 89 | 1008.8 |
| 20260905032430 | 13 | 213 | 4.8 | 11.3 | 0.00 | 2.54 | 0.05 | 89 | 1008.7 |
| 20260905031433 | 13 | 234 | 3.2 | 12.9 | 0.00 | 2.57 | 0.05 | 88 | 1008.8 |
| 20260905030431 | 13 | 271 | 6.4 | 16.1 | 0.00 | 2.59 | 0.05 | 88 | 1008.8 |
| 20260905025433 | 13 | 230 | 6.4 | 16.1 | 0.00 | 2.59 | 0.05 | 88 | 1008.7 |
| 20260905024432 | 13 | 223 | 6.4 | 19.3 | 0.00 | 2.59 | 0.05 | 87 | 1008.4 |
| 20260905023427 | 13 | 257 | 6.4 | 16.1 | 0.00 | 2.59 | 0.05 | 87 | 1008.5 |
| 20260905022424 | 13 | 215 | 6.4 | 14.5 | 0.00 | 2.59 | 0.05 | 87 | 1008.3 |
| 20260905021901 | 13 | 277 | 6.4 | 14.5 | 0.00 | 2.59 | 0.05 | 87 | 1008.4 |
| 20260905020421 | 13 | 240 | 6.4 | 19.3 | 0.00 | 2.59 | 0.05 | 87 | 1008.4 |
| 20260905015415 | 13 | 228 | 9.7 | 17.7 | 0.00 | 2.59 | 0.05 | 88 | 1008.3 |
| 20260905014412 | 13 | 248 | 6.4 | 17.7 | 0.00 | 2.59 | 0.05 | 88 | 1008.2 |
| 20260905013410 | 13 | 304 | 8.0 | 19.3 | 0.00 | 2.59 | 0.05 | 88 | 1008.1 |
| 20260905012404 | 13 | 254 | 6.4 | 17.7 | 0.00 | 2.59 | 0.05 | 88 | 1008.0 |
| 20260905010405 | 13 | 259 | 6.4 | 14.5 | 0.00 | 2.59 | 0.05 | 88 | 1008.0 |
| 20260905005404 | 13 | 266 | 8.0 | 17.7 | 0.00 | 2.59 | 0.05 | 88 | 1008.0 |
| 20260905004405 | 13 | 253 | 9.7 | 22.5 | 0.00 | 2.59 | 0.05 | 87 | 1008.0 |
| 20260905003403 | 13 | 248 | 9.7 | 22.5 | 0.00 | 2.59 | 0.05 | 86 | 1008.0 |
| 20260905002404 | 13 | 294 | 11.3 | 17.7 | 0.00 | 2.62 | 0.05 | 86 | 1007.7 |
| 20260905001404 | 13 | 288 | 9.7 | 20.9 | 0.00 | 2.62 | 0.05 | 85 | 1007.6 |
| 20260905000405 | 13 | 247 | 8.0 | 25.7 | 0.00 | 2.62 | 0.05 | 86 | 1007.7 |
| 20260904235410 | 14 | 261 | 11.3 | 25.7 | 0.00 | 2.62 | 0.05 | 86 | 1007.7 |
| 20260904234854 | 14 | 5 | 9.7 | 27.4 | 0.00 | 2.62 | 0.05 | 87 | 1007.4 |
| 20260904233404 | 14 | 261 | 14.5 | 20.9 | 0.00 | 2.62 | 0.05 | 89 | 1007.4 |
| 20260904232400 | 14 | 283 | 9.7 | 20.9 | 0.00 | 2.62 | 0.05 | 90 | 1007.3 |
| 20260904231842 | 14 | 304 | 9.7 | 20.9 | 0.00 | 2.62 | 0.05 | 90 | 1007.3 |
| 20260904230352 | 14 | 209 | 9.7 | 19.3 | 0.03 | 2.62 | 0.05 | 91 | 1007.2 |
| 20260904225348 | 13 | 244 | 9.7 | 22.5 | 0.08 | 2.59 | 0.05 | 91 | 1007.1 |
| 20260904224346 | 13 | 261 | 8.0 | 25.7 | 0.08 | 2.59 | 0.05 | 92 | 1007.1 |
| 20260904223345 | 13 | 302 | 9.7 | 19.3 | 0.08 | 2.59 | 0.05 | 93 | 1007.2 |
| 20260904222340 | 13 | 263 | 6.4 | 19.3 | 0.08 | 2.59 | 0.05 | 93 | 1007.2 |
| 20260904221336 | 13 | 288 | 11.3 | 20.9 | 0.08 | 2.59 | 0.05 | 92 | 1007.1 |
| 20260904220334 | 14 | 272 | 8.0 | 25.7 | 0.05 | 2.59 | 0.03 | 91 | 1007.1 |
| 20260904215333 | 14 | 249 | 16.1 | 27.4 | 0.00 | 2.54 | 2.54 | 90 | 1006.9 |
| 20260904214333 | 14 | 263 | 11.3 | 27.4 | 0.00 | 2.54 | 2.54 | 89 | 1006.8 |
| 20260904213331 | 14 | 228 | 11.3 | 27.4 | 0.00 | 2.54 | 2.54 | 88 | 1006.6 |
| 20260904212816 | 14 | 217 | 11.3 | 37.0 | 0.00 | 2.54 | 2.54 | 89 | 1006.5 |
| 20260904211332 | 14 | 294 | 19.3 | 37.0 | 0.03 | 2.54 | 2.54 | 91 | 1006.5 |
| 20260904210331 | 14 | 264 | 11.3 | 20.9 | 0.03 | 2.54 | 2.54 | 92 | 1006.5 |
| 20260904205331 | 13 | 204 | 8.0 | 19.3 | 0.03 | 2.51 | 2.54 | 92 | 1006.5 |
| 20260904203816 | 14 | 264 | 8.0 | 25.7 | 0.03 | 2.51 | 2.54 | 91 | 1006.3 |
| 20260904202337 | 14 | 236 | 16.1 | 46.7 | 0.03 | 2.51 | 2.54 | 90 | 1006.3 |
| 20260904201334 | 14 | 269 | 11.3 | 25.7 | 0.03 | 2.51 | 2.51 | 90 | 1006.4 |
| 20260904200348 | 14 | 208 | 12.9 | 22.5 | 0.03 | 2.51 | 2.51 | 90 | 1006.0 |
| 20260904195334 | 14 | 294 | 11.3 | 32.2 | 0.03 | 2.49 | 2.51 | 91 | 1006.1 |
| 20260904194333 | 14 | 274 | 12.9 | 25.7 | 0.03 | 2.49 | 2.51 | 91 | 1006.0 |
| 20260904193331 | 14 | 231 | 12.9 | 27.4 | 0.03 | 2.49 | 2.51 | 91 | 1005.9 |
| 20260904192332 | 15 | 319 | 12.9 | 30.6 | 0.03 | 2.49 | 2.51 | 89 | 1005.9 |
| 20260904190331 | 15 | 261 | 11.3 | 20.9 | 0.00 | 2.49 | 2.49 | 87 | 1005.8 |
| 20260904185333 | 15 | 238 | 9.7 | 22.5 | 0.00 | 2.49 | 2.49 | 86 | 1005.5 |
| 20260904184332 | 15 | 259 | 9.7 | 19.3 | 0.00 | 2.49 | 2.49 | 85 | 1005.4 |
| 20260904183332 | 15 | 275 | 8.0 | 27.4 | 0.00 | 2.49 | 2.49 | 85 | 1005.3 |
| 20260904181331 | 15 | 259 | 12.9 | 27.4 | 0.00 | 2.49 | 2.49 | 85 | 1004.9 |
| 20260904180332 | 15 | 334 | 12.9 | 30.6 | 0.00 | 2.49 | 2.49 | 86 | 1004.9 |
| 20260904175334 | 15 | 277 | 11.3 | 29.0 | 0.00 | 2.51 | 2.49 | 86 | 1004.7 |
| 20260904174813 | 15 | 259 | 9.7 | 25.7 | 0.00 | 2.51 | 2.49 | 86 | 1004.6 |
| 20260904173816 | 16 | 350 | 14.5 | 29.0 | 0.00 | 2.54 | 2.49 | 85 | 1004.6 |
| 20260904172331 | 16 | 267 | 12.9 | 32.2 | 0.00 | 2.54 | 2.49 | 85 | 1004.4 |
| 20260904171331 | 16 | 268 | 17.7 | 30.6 | 0.00 | 2.54 | 2.49 | 85 | 1004.2 |
| 20260904170333 | 16 | 294 | 12.9 | 29.0 | 0.00 | 2.54 | 2.49 | 87 | 1003.9 |
| 20260904165332 | 16 | 269 | 14.5 | 30.6 | 0.00 | 2.54 | 2.49 | 89 | 1003.7 |
| 20260904164332 | 16 | 269 | 11.3 | 29.0 | 0.00 | 2.54 | 2.49 | 92 | 1003.4 |
| 20260904163810 | 16 | 271 | 14.5 | 30.6 | 0.00 | 2.54 | 2.49 | 93 | 1003.1 |
| 20260904162332 | 16 | 276 | 9.7 | 29.0 | 0.05 | 2.57 | 2.49 | 93 | 1003.1 |
| 20260904161332 | 16 | 271 | 9.7 | 25.7 | 0.05 | 2.57 | 2.49 | 93 | 1003.0 |
| 20260904160332 | 16 | 273 | 12.9 | 32.2 | 0.05 | 2.57 | 2.49 | 93 | 1002.8 |
| 20260904155331 | 17 | 195 | 17.7 | 37.0 | 0.05 | 2.51 | 2.49 | 94 | 1002.7 |
| 20260904154332 | 17 | 234 | 14.5 | 38.6 | 0.05 | 2.51 | 2.49 | 94 | 1002.5 |
| 20260904153333 | 17 | 269 | 24.1 | 46.7 | 0.15 | 2.51 | 2.49 | 95 | 1002.4 |
| 20260904152331 | 16 | 252 | 20.9 | 43.5 | 0.38 | 2.51 | 2.46 | 96 | 1002.0 |
| 20260904151332 | 16 | 242 | 12.9 | 27.4 | 0.43 | 2.51 | 2.46 | 96 | 1002.1 |
| 20260904150331 | 16 | 267 | 12.9 | 29.0 | 0.43 | 2.51 | 2.46 | 96 | 1001.9 |
| 20260904145332 | 16 | 175 | 12.9 | 29.0 | 0.46 | 2.08 | 2.46 | 96 | 1001.9 |
| 20260904144331 | 16 | 238 | 12.9 | 32.2 | 0.69 | 2.08 | 2.44 | 96 | 1001.9 |
| 20260904143332 | 17 | 275 | 3.2 | 20.9 | 0.71 | 2.08 | 2.34 | 96 | 1001.8 |
| 20260904142332 | 17 | 261 | 9.7 | 25.7 | 0.46 | 2.08 | 2.06 | 97 | 1001.9 |
| 20260904141331 | 16 | 265 | 8.0 | 20.9 | 0.41 | 2.08 | 2.03 | 96 | 1001.9 |
| 20260904140331 | 16 | 214 | 9.7 | 20.9 | 0.41 | 2.08 | 2.03 | 96 | 1002.0 |
| 20260904135805 | 16 | 248 | 9.7 | 20.9 | 0.38 | 1.70 | 2.01 | 95 | 1002.1 |
| 20260904134817 | 17 | 254 | 9.7 | 17.7 | 0.18 | 1.70 | 1.75 | 95 | 1002.2 |
| 20260904133331 | 17 | 198 | 4.8 | 20.9 | 0.05 | 1.70 | 1.65 | 95 | 1002.3 |
| 20260904132332 | 17 | 200 | 9.7 | 20.9 | 0.03 | 1.70 | 1.63 | 95 | 1002.4 |
| 20260904131331 | 17 | 238 | 11.3 | 20.9 | 0.03 | 1.70 | 1.63 | 95 | 1002.4 |
| 20260904130811 | 17 | 259 | 8.0 | 19.3 | 0.03 | 1.70 | 1.63 | 95 | 1002.3 |
| 20260904125341 | 17 | 302 | 8.0 | 22.5 | 0.03 | 1.68 | 1.63 | 95 | 1002.2 |
| 20260904124342 | 17 | 225 | 8.0 | 19.3 | 0.00 | 1.68 | 1.60 | 94 | 1001.9 |
| 20260904123335 | 17 | 222 | 6.4 | 19.3 | 0.00 | 1.68 | 1.60 | 94 | 1002.1 |
| 20260904122334 | 17 | 257 | 9.7 | 25.7 | 0.03 | 1.68 | 1.60 | 94 | 1002.4 |
| 20260904121334 | 17 | 227 | 4.8 | 19.3 | 0.03 | 1.68 | 1.60 | 95 | 1001.7 |
| 20260904120331 | 17 | 254 | 6.4 | 20.9 | 0.05 | 1.68 | 1.60 | 95 | 1002.3 |
| 20260904115333 | 17 | 306 | 12.9 | 25.7 | 0.05 | 1.65 | 1.60 | 95 | 1001.7 |
| 20260904114331 | 17 | 229 | 8.0 | 19.3 | 0.13 | 1.65 | 1.60 | 96 | 1001.8 |
| 20260904113330 | 17 | 257 | 6.4 | 17.7 | 0.15 | 1.65 | 1.60 | 96 | 1002.0 |
| 20260904112332 | 17 | 261 | 4.8 | 17.7 | 0.20 | 1.65 | 1.57 | 96 | 1002.2 |
| 20260904111819 | 17 | 268 | 8.0 | 17.7 | 0.23 | 1.65 | 1.57 | 96 | 1002.0 |
| 20260904110331 | 17 | 265 | 3.2 | 12.9 | 0.30 | 1.65 | 1.55 | 96 | 1002.1 |
| 20260904105333 | 17 | 263 | 4.8 | 14.5 | 0.33 | 1.35 | 1.55 | 96 | 1001.9 |
| 20260904104331 | 16 | 205 | 3.2 | 16.1 | 0.28 | 1.35 | 1.47 | 96 | 1002.1 |
| 20260904103331 | 17 | 268 | 3.2 | 14.5 | 0.23 | 1.35 | 1.45 | 96 | 1002.1 |
| 20260904102332 | 16 | 255 | 6.4 | 12.9 | 0.18 | 1.35 | 1.37 | 95 | 1002.5 |
| 20260904101331 | 16 | 261 | 4.8 | 14.5 | 0.15 | 1.37 | 1.35 | 95 | 1002.5 |
| 20260904100331 | 17 | 219 | 4.8 | 14.5 | 0.08 | 1.37 | 1.27 | 94 | 1002.4 |
| 20260904095333 | 17 | 262 | 1.6 | 11.3 | 0.05 | 1.32 | 1.22 | 94 | 1002.4 |
| 20260904094808 | 17 | 262 | 6.4 | 12.9 | 0.03 | 1.32 | 1.19 | 94 | 1002.4 |
| 20260904093332 | 17 | 223 | 8.0 | 12.9 | 0.05 | 1.35 | 1.19 | 94 | 1002.3 |
| 20260904092333 | 17 | 244 | 1.6 | 12.9 | 0.05 | 1.40 | 1.19 | 94 | 1002.8 |
| 20260904091333 | 17 | 226 | 3.2 | 12.9 | 0.05 | 1.40 | 1.17 | 95 | 1003.0 |
| 20260904090331 | 16 | 250 | 6.4 | 17.7 | 0.08 | 1.42 | 1.17 | 94 | 1003.5 |
| 20260904085333 | 16 | 242 | 3.2 | 12.9 | 0.10 | 1.35 | 1.17 | 95 | 1003.7 |
| 20260904084332 | 16 | 262 | 3.2 | 17.7 | 0.10 | 1.35 | 1.17 | 94 | 1003.5 |
| 20260904083334 | 16 | 279 | 8.0 | 16.1 | 0.08 | 1.37 | 1.17 | 94 | 1003.6 |
| 20260904082333 | 16 | 275 | 8.0 | 17.7 | 0.05 | 1.37 | 1.14 | 94 | 1003.7 |
| 20260904081331 | 16 | 215 | 6.4 | 16.1 | 0.05 | 1.37 | 1.12 | 95 | 1003.8 |
| 20260904080334 | 16 | 204 | 4.8 | 25.7 | 0.05 | 1.52 | 1.09 | 94 | 1004.0 |
| 20260904075332 | 16 | 236 | 8.0 | 25.7 | 0.03 | 1.47 | 1.09 | 94 | 1004.0 |
| 20260904074331 | 16 | 244 | 8.0 | 17.7 | 0.03 | 1.50 | 1.09 | 94 | 1004.2 |
| 20260904073332 | 16 | 254 | 6.4 | 16.1 | 0.05 | 1.50 | 1.09 | 93 | 1004.4 |
| 20260904072332 | 16 | 272 | 4.8 | 17.7 | 0.05 | 1.50 | 1.09 | 93 | 1004.3 |
| 20260904071333 | 16 | 242 | 6.4 | 16.1 | 0.05 | 1.52 | 1.07 | 93 | 1004.4 |